Location: *
(55.5817°S, 142.4781°W)
Time: 08:03:37
(UTC+00:00)

SeaSat 1 - Pass Details

Date: 29 April 2025
Orbit: 738 x 740 km, 108.0° (Epoch: 18 May)

Event Time Altitude Azimuth Distance (km) Brightness Sun altitude
Rises 15:54:51 0° 75° (ENE) 3,194 8.3 -8.2°
Reaches altitude 10° 15:57:21 10° 85° (E) 2,275 6.6 -7.9°
Maximum altitude 16:01:35 29° 144° (SE) 1,352 4.0 -7.3°
Drops below altitude 10° 16:05:50 10° 203° (SSW) 2,289 4.6 -6.7°
Sets 16:08:21 0° 213° (SSW) 3,217 5.3 -6.4°
Enters shadow 16:08:25 - 213° (SSW) 3,243 5.3 -6.4°
